Station SWPM4 - 9076070 - S.W. Pier, MI Image indicating link to RSS feed of recent meteorological observations for station SWPM4


Conditions at SWPM4 as of
(5:18 am EDT)
0918 GMT on 04/17/2024:
     

Click on the graph icon in the table below to see a time series plot of the last five days of that observation.

5-day plot - Wind Direction Wind Direction (WDIR): E ( 100 deg true )
5-day plot - Wind Speed Wind Speed (WSPD): 13.0 kts
5-day plot - Wind Gust Wind Gust (GST): 22.0 kts
5-day plot - Atmospheric Pressure Atmospheric Pressure (PRES):29.92 in
5-day plot - Air Temperature Air Temperature (ATMP): 41.0 °F
5-day plot - Water Temperature Water Temperature (WTMP): 37.8 °F
5-day plot - Wind Chill Wind Chill (CHILL): 33.1 °F
5-day plot - Wind Speed at 10 Meters Wind Speed at 10 meters (WSPD10M): 13.6 kts
5-day plot - Wind Speed at 20 Meters Wind Speed at 20 meters (WSPD20M): 15.5 kts
5-day plot -  Wind Speed, Wind Gust and Atmospheric Pressure Combined plot of Wind Speed, Gust, and Air Pressure
NOS Water Level Observation Network Water Level
Previous observations
TIME
(EDT)
5-day plot - Wind Direction
WDIR
 
5-day plot - Wind Speed
WSPD
kts
5-day plot - Wind Gust
GST
kts
5-day plot - Wave Height
WVHT
ft
5-day plot - Dominant Wave Period
DPD
sec
5-day plot - Average Wave Period
APD
sec
5-day plot - Mean Wave Direction
MWD
 
5-day plot - Atmospheric Pressure
PRES
in
5-day plot - Pressure Tendency
PTDY
in
5-day plot - Air Temperature
ATMP
°F
5-day plot - Water Temperature
WTMP
°F
5-day plot - Dew Point
DEWP
°F
5-day plot - Salinity
SAL
psu
5-day plot - Visibility
VIS
nmi
5-day plot - Tide (above MLLW)
TIDE
ft
2024-04-17 05:12 amESE 13.0 19.0----29.92- 41.4 37.8----
2024-04-17 05:06 am E 13.0 19.0----29.92- 41.7 37.8----
2024-04-17 05:00 am E 8.9 17.1----29.93-0.07 41.5 37.8----
2024-04-17 04:54 am E 9.9 14.0----29.93- 41.5 37.8----
2024-04-17 04:48 am E 9.9 17.1----29.93- 41.7 37.8----
2024-04-17 04:42 am E 12.0 18.1----29.93- 41.7 37.8----
2024-04-17 04:36 am E 13.0 20.0----29.93- 41.7 37.8----
2024-04-17 04:30 am E 12.0 20.0----29.93- 41.9 37.8----
2024-04-17 04:24 amESE 12.0 15.9----29.95- 42.3 37.8----
2024-04-17 04:18 amESE 12.0 18.1----29.96- 42.6 37.8----
2024-04-17 04:12 amESE 11.1 17.1----29.96- 42.8 37.8----
2024-04-17 04:06 amESE 9.9 15.0----29.95- 42.8 37.8----
2024-04-17 04:00 amESE 11.1 20.0----29.94-0.08 43.2 37.8----
2024-04-17 03:54 amESE 14.0 20.0----29.92- 43.5 37.8----
2024-04-17 03:48 am E 15.0 21.0----29.91- 43.5 37.8----
2024-04-17 03:42 am E 15.0 25.1----29.92- 43.5 37.8----
2024-04-17 03:36 am E 15.0 19.0----29.93- 44.1 37.8----
2024-04-17 03:30 am E 12.0 17.1----29.96- 44.4 37.8----
2024-04-17 03:24 am E 12.0 17.1----29.96- 45.0 37.8----
2024-04-17 03:18 amESE 12.0 15.9----29.98- 45.1 37.8----
2024-04-17 03:12 amESE 11.1 22.0----29.98- 45.5 37.8----
2024-04-17 03:06 amESE 13.0 22.9----29.98- 45.9 37.8----
2024-04-17 03:00 amESE 9.9 18.1----29.98-0.03 46.0 37.8----
2024-04-17 02:54 amESE 12.0 19.0----29.99- 46.8 37.8----
2024-04-17 02:48 amESE 11.1 22.9----30.00- 47.3 37.8----
2024-04-17 02:42 amESE 14.0 21.0----30.00- 48.0 37.8----
2024-04-17 02:36 amESE 12.0 18.1----30.00- 48.4 37.8----
2024-04-17 02:30 amESE 11.1 22.0----30.00- 48.6 37.8----
2024-04-17 02:24 amESE 11.1 21.0----30.00- 48.4 37.8----
2024-04-17 02:18 amESE 12.0 27.0----30.00- 48.4 37.8----
2024-04-17 02:12 amESE 12.0 26.0----29.99- 48.2 37.8----
2024-04-17 02:06 amESE 14.0 26.0----30.00- 48.2 37.8----
2024-04-17 02:00 amESE 12.0 21.0----30.00-0.03 48.0 37.8----
2024-04-17 01:54 amESE 14.0 22.0----30.00- 48.0 37.8----
2024-04-17 01:48 amESE 12.0 18.1----30.01- 48.0 37.8----
2024-04-17 01:42 am SE 13.0 19.0----30.02- 48.0 37.6----
2024-04-17 01:36 am SE 8.0 15.9----30.02- 48.0 37.6----
2024-04-17 01:30 am SE 12.0 18.1----30.02- 48.0 37.6----
2024-04-17 01:24 am SE 12.0 15.0----30.03- 47.8 37.6----
2024-04-17 01:18 am SE 8.0 15.0----30.02- 47.7 37.6----
2024-04-17 01:12 am SE 8.9 13.0----30.02- 47.5 37.6----
2024-04-17 01:06 am SE 8.0 12.0----30.02- 47.5 37.8----
2024-04-17 01:00 am SE 5.1 11.1----30.02-0.03 47.3 37.6----
2024-04-17 12:54 am SE 7.0 12.0----30.01- 47.3 37.6----
2024-04-17 12:48 am SE 7.0 12.0----30.01- 47.1 37.4----
2024-04-17 12:42 am SE 8.0 13.0----30.01- 47.1 37.4----
2024-04-17 12:36 amESE 8.0 14.0----30.00- 47.1 37.6----
2024-04-17 12:30 amESE 11.1 15.0----30.00- 47.1 37.8----
2024-04-17 12:24 amESE 8.9 13.0----30.01- 46.9 37.6----
2024-04-17 12:18 amESE 9.9 14.0----30.01- 46.9 37.8----
2024-04-17 12:12 amESE 9.9 13.0----30.01- 46.8 37.8----
2024-04-17 12:06 amESE 11.1 15.0----30.01- 46.9 37.8----
2024-04-17 12:00 amESE 9.9 14.0----30.01-0.04 47.1 37.8----
2024-04-16 11:54 pm SE 8.9 13.0----30.02- 47.3 37.8----
2024-04-16 11:48 pmESE 8.0 11.1----30.02- 47.5 37.8----
2024-04-16 11:42 pmESE 6.0 12.0----30.02- 47.8 37.8----
2024-04-16 11:36 pm SE 7.0 14.0----30.03- 48.0 37.8----
2024-04-16 11:30 pmESE 8.0 13.0----30.02- 48.0 37.8----
2024-04-16 11:24 pmESE 8.0 11.1----30.02- 48.0 37.8----
2024-04-16 11:18 pmESE 7.0 14.0----30.03- 48.0 37.8----
2024-04-16 11:12 pmESE 8.0 9.9----30.03- 48.0 37.8----
2024-04-16 11:06 pmESE 8.0 11.1----30.03- 48.2 37.8----
2024-04-16 11:00 pmESE 8.0 11.1----30.03-0.02 48.6 37.6----
2024-04-16 10:54 pmESE 8.0 11.1----30.03- 48.6 37.8----
2024-04-16 10:48 pmESE 8.0 13.0----30.03- 48.7 37.8----
2024-04-16 10:42 pmESE 8.9 12.0----30.04- 48.9 37.8----
2024-04-16 10:36 pmESE 8.0 13.0----30.04- 48.7 37.8----
2024-04-16 10:30 pmESE 7.0 12.0----30.04- 48.7 37.8----
2024-04-16 10:24 pmESE 9.9 14.0----30.03- 48.9 37.8----
2024-04-16 10:18 pm E 9.9 13.0----30.03- 48.9 37.8----
2024-04-16 10:12 pm E 9.9 15.9----30.04- 48.9 37.8----
2024-04-16 10:06 pm E 8.9 14.0----30.04- 48.9 37.8----
2024-04-16 10:00 pm E 6.0 11.1----30.05-0.01 49.1 37.6----
2024-04-16 09:54 pmESE 8.9 12.0----30.06- 49.1 37.6----
2024-04-16 09:48 pm E 7.0 11.1----30.06- 49.1 37.6----
2024-04-16 09:42 pmESE 7.0 12.0----30.06- 49.1 37.6----
2024-04-16 09:36 pmESE 8.0 12.0----30.06- 49.5 37.6----
2024-04-16 09:30 pmESE 8.9 13.0----30.06- 49.8 37.6----
2024-04-16 09:24 pmESE 11.1 13.0----30.06- 50.0 37.6----
2024-04-16 09:18 pm SE 7.0 11.1----30.07- 50.0 37.6----
2024-04-16 09:12 pmESE 7.0 13.0----30.06- 50.2 37.6----
2024-04-16 09:00 pmESE 8.9 15.9----30.05-0.03 50.4 37.8----
2024-04-16 08:54 pmESE 9.9 13.0----30.05- 50.5 37.8----
2024-04-16 08:48 pmESE 8.9 12.0----30.06- 50.9 37.8----
2024-04-16 08:42 pmESE 7.0 15.0----30.05- 51.3 37.8----
2024-04-16 08:36 pmESE 8.0 12.0----30.05- 51.8 37.8----
2024-04-16 08:30 pmESE 7.0 12.0----30.05- 52.3 37.8----
2024-04-16 08:24 pm E 8.0 13.0----30.04- 52.9 37.8----
2024-04-16 08:18 pmESE 8.0 11.1----30.05- 53.2 37.8----
2024-04-16 08:12 pmESE 6.0 12.0----30.06- 53.4 37.8----
2024-04-16 08:06 pm SE 8.9 12.0----30.06- 53.8 37.8----
2024-04-16 08:00 pmESE 8.9 12.0----30.05-0.04 54.1 37.8----
2024-04-16 07:54 pm SE 8.0 11.1----30.06- 54.5 37.8----
2024-04-16 07:48 pm SE 8.0 12.0----30.05- 54.9 37.8----
2024-04-16 07:42 pmESE 8.0 12.0----30.05- 55.0 37.8----
2024-04-16 07:36 pmESE 8.9 13.0----30.05- 55.6 37.8----
2024-04-16 07:30 pmESE 6.0 9.9----30.06- 55.9 37.8----
2024-04-16 07:24 pmESE 7.0 12.0----30.06- 55.9 37.8----
2024-04-16 07:18 pmESE 8.0 12.0----30.06- 56.1 37.8----
2024-04-16 07:12 pmESE 7.0 11.1----30.06- 56.3 37.8----
2024-04-16 07:06 pm SE 7.0 9.9----30.06- 56.8 37.8----
2024-04-16 07:00 pm SE 8.0 15.0----30.06-0.08 56.7-----
2024-04-16 06:54 pm SE 8.0 13.0----30.06- 57.0-----
2024-04-16 06:48 pm SE 7.0 13.0----30.06- 57.0 37.8----
2024-04-16 06:42 pm SE 8.9 14.0----30.07- 56.7 37.8----
2024-04-16 06:36 pm SE 8.0 11.1----30.08- 57.2 37.8----
2024-04-16 06:30 pm SE 6.0 9.9----30.08-- 37.8----
2024-04-16 06:24 pm SE 4.1 8.9----30.08-- 37.8----
2024-04-16 06:18 pm SE 8.0 12.0----30.08-- 37.8----
2024-04-16 06:12 pm SE 6.0 9.9----30.08-- 37.8----
2024-04-16 06:06 pmSSE 6.0 9.9----30.08-- 37.8----
2024-04-16 06:00 pm SE 7.0 12.0----30.09-0.08 58.5 37.8----
2024-04-16 05:54 pmSSE 8.9 11.1----30.09- 58.8 37.8----
2024-04-16 05:48 pmSSE 7.0 13.0----30.09- 59.0 37.8----
2024-04-16 05:42 pmESE 7.0 11.1----30.08- 59.2 37.8----
2024-04-16 05:36 pmESE 8.0 12.0----30.08- 59.2 37.8----
2024-04-16 05:30 pm E 8.9 12.0----30.08- 59.4 37.8----
2024-04-16 05:24 pm E 7.0 11.1----30.08- 59.2 37.8----
2024-04-16 05:18 pmESE 6.0 14.0----30.09- 59.4 37.8----
2024-04-16 05:12 pm E 8.9 12.0----30.09- 59.0 37.8----
2024-04-16 05:06 pmESE 6.0 11.1----30.09- 59.0 37.8----
2024-04-16 05:00 pm SE 7.0 9.9----30.09-0.08 58.5 37.8----
2024-04-16 04:54 pm SE 7.0 11.1----30.10- 58.3 37.8----
2024-04-16 04:48 pm E 6.0 9.9----30.10- 58.3 37.8----
2024-04-16 04:42 pm E 5.1 8.0----30.11- 58.3 37.8----
2024-04-16 04:36 pm E 5.1 7.0----30.11- 57.4 37.8----
2024-04-16 04:30 pm E 4.1 7.0----30.13- 57.4 37.8----
2024-04-16 04:24 pmENE 4.1 5.1----30.13- 56.3 37.8----
2024-04-16 04:18 pm E 6.0 8.9----30.14- 56.7 37.8----
2024-04-16 04:12 pm NE 2.9 8.9----30.14- 56.7 37.8----
2024-04-16 04:06 pm E 5.1 8.9----30.14- 56.8 37.8----
2024-04-16 04:00 pm S 1.9 5.1----30.15-0.06 57.6 37.6----
2024-04-16 03:54 pm NE 2.9 5.1----30.15- 56.1 37.8----
2024-04-16 03:48 pmENE 1.9 4.1----30.15- 56.1 37.8----
2024-04-16 03:42 pm NE 5.1 6.0----30.16- 55.6 37.8----
2024-04-16 03:36 pmENE 6.0 8.0----30.16- 55.2 37.8----
2024-04-16 03:30 pm NE 5.1 5.1----30.15- 55.0 37.8----
2024-04-16 03:24 pmENE 4.1 6.0----30.15- 55.2 37.8----
2024-04-16 03:18 pmESE 1.0 8.0----30.16- 56.3 37.8----
2024-04-16 03:12 pmESE 4.1 8.0----30.16- 55.8 37.8----
2024-04-16 03:06 pmESE 5.1 8.0----30.16- 56.5 37.8----
2024-04-16 03:00 pmSSW 1.9 6.0----30.16-0.06 55.9 37.8----
2024-04-16 02:54 pmSSE 2.9 8.0----30.16- 55.9 37.8----
2024-04-16 02:48 pm E 7.0 8.9----30.16- 54.9 37.8----
2024-04-16 02:42 pmESE 1.9 5.1----30.17- 54.9 37.8----
2024-04-16 02:30 pmSSE 7.0 9.9----30.17- 54.3 37.8----
2024-04-16 02:24 pm E 4.1 6.0----30.17- 54.3 37.8----
2024-04-16 02:18 pm E 2.9 8.0----30.17- 53.8 37.8----
2024-04-16 02:12 pmESE 5.1 8.0----30.17- 53.6 37.8----
2024-04-16 02:06 pmESE 5.1 8.9----30.17- 53.2 37.8----
2024-04-16 02:00 pm E 2.9 6.0----30.17-0.04 53.1 37.8----
2024-04-16 01:54 pm E 5.1 8.0----30.18- 52.9 37.8----
2024-04-16 01:48 pmENE 6.0 8.0----30.18- 52.5 37.8----
2024-04-16 01:42 pmENE 4.1 6.0----30.19- 52.3 37.8----
2024-04-16 01:36 pmENE 5.1 7.0----30.19- 52.2 37.8----
2024-04-16 01:30 pm NE 1.9 4.1----30.19- 52.5 37.8----
2024-04-16 01:24 pm NE 2.9 2.9----30.20- 52.2 37.8----
2024-04-16 01:18 pm E 4.1 7.0----30.20- 52.0 37.8----
2024-04-16 01:12 pm E 5.1 7.0----30.20- 51.4 37.8----
2024-04-16 01:06 pm E 2.9 6.0----30.20- 51.8 37.8----
2024-04-16 01:00 pm NE 4.1 6.0----30.21-0.01 51.3 37.8----
2024-04-16 12:54 pmENE 6.0 7.0----30.21- 51.4 37.8----
2024-04-16 12:48 pmENE 5.1 8.9----30.21- 51.4 37.8----
2024-04-16 12:42 pmENE 4.1 6.0----30.21- 51.3 37.8----
2024-04-16 12:36 pmENE 4.1 5.1----30.21- 50.9 37.8----
2024-04-16 12:30 pm NE 1.9 2.9----30.22- 51.4 37.8----
2024-04-16 12:24 pm W 1.9 2.9----30.22- 51.8 37.8----
2024-04-16 12:18 pmNNE 1.0 2.9----30.22- 51.3 37.8----
2024-04-16 12:12 pmWSW 1.0 2.9----30.23- 51.4 37.8----
2024-04-16 12:06 pm NW 1.9 2.9----30.22- 50.9 37.8----
2024-04-16 12:00 pmSSE 1.9 2.9----30.22+0.01 51.8 37.8----
2024-04-16 11:54 amNNW 1.9 5.1----30.22- 50.5 37.8----
2024-04-16 11:48 am N 1.0 2.9----30.22- 50.7 37.8----
2024-04-16 11:42 am NE 2.9 6.0----30.22- 50.0 37.8----
2024-04-16 11:36 am NE 1.9 7.0----30.22- 49.6 37.8----
2024-04-16 11:30 amENE 5.1 8.0----30.23- 49.5 37.8----
2024-04-16 11:24 am NE 1.9 4.1----30.22- 49.1 37.8----
2024-04-16 11:18 am NE 1.9 5.1----30.22- 49.1 37.8----
2024-04-16 11:12 amENE 2.9 6.0----30.22- 49.3 37.8----
2024-04-16 11:06 am SE 4.1 5.1----30.22- 49.1 37.8----
2024-04-16 11:00 amENE 5.1 7.0----30.21+0.02 47.7 37.8----
2024-04-16 10:54 am E 5.1 6.0----30.21- 47.5 37.8----
2024-04-16 10:48 am E 4.1 7.0----30.21- 47.7 37.8----
2024-04-16 10:42 am E 5.1 7.0----30.22- 47.3 37.8----
2024-04-16 10:36 amESE 6.0 9.9----30.21- 46.8 37.8----
2024-04-16 10:30 am E 6.0 8.9----30.21- 46.6 37.8----
2024-04-16 10:24 am E 6.0 8.0----30.21- 46.2 37.8----
2024-04-16 10:18 am E 5.1 7.0----30.22- 45.5 37.8----
2024-04-16 10:12 am E 5.1 6.0----30.22- 45.3 37.8----
2024-04-16 10:06 am E 4.1 5.1----30.22- 45.0 37.8----
2024-04-16 10:00 amENE 4.1 5.1----30.22+0.05 44.6 37.8----
2024-04-16 09:54 amENE 2.9 6.0----30.23- 44.1 37.8----
2024-04-16 09:48 am E 4.1 6.0----30.22- 43.7 37.8----
2024-04-16 09:42 am E 5.1 6.0----30.22- 43.0 37.8----
2024-04-16 09:36 am E 5.1 6.0----30.22- 42.4 37.8----
2024-04-16 09:30 amENE 2.9 2.9----30.22- 41.7 37.8----
2024-04-16 09:24 amENE 1.9 2.9----30.22- 41.5 37.8----
2024-04-16 09:18 amENE 1.9 1.9----30.22- 41.4 37.8----
2024-04-16 09:12 am- 0.0 1.0----30.22- 41.7 37.8----
2024-04-16 09:06 am- 0.0 1.9----30.21- 41.0 37.8----
2024-04-16 09:00 am SE 1.9 2.9----30.22+0.05 39.9 37.8----
2024-04-16 08:54 amESE 1.0 2.9----30.21- 39.6 37.8----
2024-04-16 08:48 amESE 2.9 4.1----30.20- 38.1 37.8----
2024-04-16 08:42 amESE 2.9 4.1----30.20- 37.4 37.8----
2024-04-16 08:36 am E 2.9 4.1----30.19- 36.7 37.8----
2024-04-16 08:30 am E 2.9 4.1----30.19- 36.0 37.8----
2024-04-16 08:24 am E 1.9 2.9----30.19- 36.0 37.8----
2024-04-16 08:18 amENE 1.9 1.9----30.20- 36.3 37.8----
2024-04-16 08:12 am- 0.0 0.0----30.20- 37.6 37.8----
2024-04-16 08:06 am- 0.0 0.0----30.19- 37.9 37.8----
2024-04-16 08:00 am- 0.0 1.0----30.19+0.04 36.7 37.8----
2024-04-16 07:54 am- 0.0 1.0----30.19- 35.1 37.8----
2024-04-16 07:48 am- 0.0 1.0----30.19- 35.1 37.8----
2024-04-16 07:42 am- 0.0 1.0----30.18- 35.4 37.8----
2024-04-16 07:36 am- 0.0 1.0----30.18- 34.3 37.8----
2024-04-16 07:30 am SW 1.0 1.0----30.18- 34.2 37.8----
2024-04-16 07:24 am- 0.0 1.0----30.18- 34.2 37.8----
2024-04-16 07:18 am- 0.0 0.0----30.17- 34.5 37.8----
2024-04-16 07:12 am- 0.0 1.0----30.17- 34.0 37.8----
2024-04-16 07:06 am- 0.0 1.9----30.17- 33.4 37.8----
2024-04-16 07:00 amESE 1.9 2.9----30.17+0.04 32.9 37.8----
2024-04-16 06:54 am SE 1.9 2.9----30.17- 32.9 37.8----
2024-04-16 06:48 amESE 1.9 1.9----30.17- 32.7 37.8----
2024-04-16 06:42 am- 0.0 1.0----30.16- 32.5 37.8----
2024-04-16 06:36 am- 0.0 1.0----30.16- 32.5 37.8----
2024-04-16 06:30 am NE 1.9 1.9----30.16- 32.9 37.8----
2024-04-16 06:24 am- 0.0 1.0----30.16- 33.3 37.8----
2024-04-16 06:18 am- 0.0 1.0----30.16- 33.3 37.8----
2024-04-16 06:12 amWNW 1.0 1.9----30.16- 33.4 37.8----
2024-04-16 06:06 am- 0.0 1.9----30.16- 33.3 37.8----
2024-04-16 06:00 amWSW 1.9 2.9----30.16+0.04 33.6 37.6----
2024-04-16 05:54 am W 1.9 2.9----30.16- 34.2 37.6----
2024-04-16 05:48 am W 1.9 2.9----30.16- 34.3 37.6----
2024-04-16 05:42 am W 1.9 2.9----30.16- 34.5 37.6----
2024-04-16 05:36 am W 1.9 1.9----30.16- 34.5 37.6----
2024-04-16 05:30 am W 1.9 1.9----30.16- 34.3 37.6----
2024-04-16 05:24 amWNW 1.0 1.9----30.16- 34.5 37.6----
2024-04-16 05:18 am W 1.0 1.9----30.15- 34.5 37.6----
2024-04-16 05:12 am- 0.0 1.0----30.15- 34.3 37.8----
2024-04-16 05:06 am NW 1.0 1.9----30.14- 34.3 37.6----
2024-04-16 05:00 amWNW 1.9 2.9----30.15+0.04 34.5 37.4----
2024-04-16 04:54 amWNW 2.9 2.9----30.14- 34.5 37.6----